STARLINK-1762 (46342 NORAD) Tracking and Keplerian Element Data

This shows tracking and keplerian element data for the satellite.

Feedback or suggestion? Click here.




ElementValue
Catalog46342
NameSTARLINK-1762
Epoch Orbit180
Epoch Day336.91667824
Epoch Year2020
RAAN12.7673
Inclination53.0009
Eccentricity0.0001347
Argument of Perigee77.6908
Mean Anonmoly352.6335
Mean Motion15.05554042
Decay Rate0.00027611
L11 46342U 20062T 20336.91667824 .00027611 00000-0 19081-2 0 9994
L22 46342 53.0009 12.7673 0001347 77.6908 352.6335 15.05554042 1803

Live tracking and technical data element details for STARLINK-1762 (NORAD 46342). STARLINK-1762 can be tracked NOW for your location showing map with azimuth and elevation plus other details from your city location.

Track the satellite on the map from your city or location and see movement details for azimuth, elevation, latitude, longitude, range, height, and movement on the map or in text.







IsCatalogInMostPopularTable: catalog: 46342, numindb: 24
Update: records affected: 1



GetName: 46342 STARLINK-1762

Hit Count: updated at: Wed, 02 Dec 2020 19:23:23 GMT